[[{"header":{"parameterUnit":"m.s-1","parameterCategory":1,"la1":30.2991,"la2":30.254,"lo1":-89.0895,"lo2":-89.0444,"dy":0.0017,"dx":0.0017,"nx":28,"ny":28,"refTime":"2025-05-17T03:00:00:Z","depth":0,"parameterNumber":2,"parameterNumberName":"U-component_of_WINDS"},"data":[0,0,0,0,0,0,0,0,0,0,0,0,0,0,0,0,0,0,0,0,0,0,0,0,0,0,0,0,0,0,0,0,0,0,0,0,0,0,0,0,0,0,0,0,0,0,0,0,0,0,0,0,0,0,0,0,0,0,0.9606,0.9606,0,0.9633,0.9633,0.9633,0.9602,0.9601,0.9599,0.9598,0.9625,0.9627,0.9629,0,0,0,0,0,0,0,0,0,0,0,0,0,0.9526,0.9528,0.9606,0.9606,0.9607,0.9633,0.9633,0.9633,0.9602,0.9601,0.9599,0.9598,0.9625,0.9627,0.9629,0,0,0,0,0,0,0,0,0,0,0,0,0,0.9558,0.9528,0.9606,0.9594,0.9593,0.9632,0.9633,0.9633,0.9602,0.96,0.9599,0.9597,0.9624,0.9626,0.9629,0.9681,0,0,0.9637,0.9639,0,0,0,0,0,0,0,0,0.9556,0.9561,0.9595,0.9595,0.9594,0.9612,0.9615,0.9649,0.9603,0.9599,0.9598,0.9596,0.9622,0.9625,0.9634,0.9682,0.9683,0.9638,0.9639,0.964,0.9641,0,0,0,0,0,0,0,0.9554,0.9559,0.9616,0.9596,0.9595,0.9587,0.9589,0.9621,0.962,0.9599,0.9597,0.96,0.9621,0.9631,0.9634,0.9684,0.9638,0.964,0.9642,0.9643,0.9775,0.9777,0,0,0,0,0,0,0.9553,0.9558,0.9616,0.9617,0.957,0.959,0.9593,0.9608,0.962,0.962,0.9602,0.9599,0.9627,0.9631,0.9635,0.9695,0.964,0.9643,0.9645,0.9773,0.9775,0.9777,0,0,0,0,0,0,0.9552,0.9559,0.9614,0.9587,0.9593,0.9593,0.9611,0.961,0.9619,0.9622,0.9621,0.9612,0.9626,0.9631,0.967,0.9696,0.9644,0.9647,0.9771,0.9774,0.9776,0.9818,0,0,0,0,0,0,0.9549,0.9558,0.9578,0.9588,0.9595,0.9649,0.9612,0.9611,0.9624,0.962,0.9631,0.9631,0.9625,0.9666,0.9672,0.9699,0.9649,0.9768,0.9772,0.9775,0.9814,0.9822,0.9828,0,0,0,0,0,0.9547,0.9589,0.958,0.9587,0.962,0.9651,0.9655,0.9647,0.9626,0.9646,0.9648,0.9631,0.9692,0.967,0.9677,0.9705,0.9767,0.9771,0.9775,0.9811,0.982,0.9828,0,0,0,0,0,0,0.9583,0.959,0.958,0.9626,0.9638,0.9645,0.967,0.9657,0.9675,0.9671,0.966,0.9663,0.9704,0.9708,0.9683,0.9755,0.9726,0.9732,0.9751,0.9759,0.9766,0.9764,0.9651,0,0,0,0,0,0.9596,0.9621,0.9626,0.9666,0.9673,0.9671,0.9684,0.9677,0.9688,0.9693,0.9697,0.9709,0.9731,0.9745,0.9766,0.9814,0.9816,0.9837,0.9844,0.985,0.9855,0.988,0.9889,0.9791,0.9791,0.9791,0,0,0.9624,0.9631,0.9647,0.9674,0.9682,0.9707,0.9675,0.9703,0.9722,0.9697,0.9734,0.9737,0.975,0.9793,0.9812,0.9798,0.9882,0.9855,0.986,0.9862,0.9885,0.9894,0.9903,0.9794,0.9794,0.9793,0,0,0.9688,0.9696,0.973,0.9739,0.9752,0.975,0.9759,0.9768,0.9769,0.9805,0.9787,0.9809,0.9847,0.9856,0.9866,0.9932,0.9917,0.9939,0.9976,1.0,1.0008,1.0015,1.0037,1.0046,0.9944,0.9944,0.9944,0,0.9721,0.9758,0.975,0.9779,0.979,0.977,0.9804,0.9813,0.9832,0.984,0.9824,0.987,0.9877,0.9922,0.9938,0.9947,0.9955,0.9937,1.0008,1.0014,1.002,1.0042,1.0051,0.9947,0.9946,0.9946,0.9946,0,0.9798,0.9824,0.985,0.9869,0.9883,0.9915,0.991,0.9926,0.9918,0.9917,0.9954,0.9962,0.9982,0.9993,0.9985,1.0036,1.0027,1.0009,0.998,1.0032,1.0052,1.0061,0.995,0.9949,0.9949,0.9948,0,0,0.9885,0.9898,0.9907,0.9915,0.9928,0.9948,0.9978,0.9998,1.0012,1.0025,1.005,1.0082,1.0066,1.0077,1.007,1.0091,1.0142,1.0071,1.0071,1.0083,1.0198,1.021,1.022,1.0132,1.0134,1.0135,1.0196,0,0.9948,1.0,0.9993,1.0043,1.0067,1.0047,1.0073,1.0084,1.0084,1.0104,1.0104,1.0126,1.0104,1.011,1.0131,1.0131,1.0165,1.0127,1.0154,1.0155,1.0151,1.0231,1.0244,1.0302,1.0204,1.0206,1.0207,0,1.0028,1.0044,1.0097,1.0105,1.0115,1.0139,1.0156,1.0176,1.0186,1.0185,1.0197,1.0186,1.0215,1.0186,1.0226,1.02,1.0211,1.0213,1.0215,1.0217,1.0184,1.0233,1.032,1.0328,1.0219,1.0218,1.0217,0,1.0085,1.012,1.0156,1.0163,1.0174,1.0191,1.0196,1.0205,1.0218,1.0233,1.0241,1.026,1.027,1.0284,1.0278,1.0257,1.0319,1.0289,1.0318,1.0318,1.0331,1.033,1.042,1.034,1.034,1.0339,1.0339,0,1.0155,1.0188,1.0182,1.0204,1.0239,1.023,1.0266,1.0269,1.0277,1.0299,1.0283,1.0303,1.0295,1.0314,1.031,1.0343,1.0348,1.0347,1.0345,1.0348,1.0348,1.0354,1.035,1.0342,1.0341,1.0341,1.034,0,1.0225,1.0222,1.0259,1.0266,1.0269,1.0295,1.03,1.032,1.032,1.0347,1.0353,1.0351,1.0374,1.0369,1.0394,1.0391,1.0432,1.0426,1.0429,1.0427,1.0455,1.0452,1.0551,1.0563,1.0476,1.0477,1.0478,0,1.0269,1.0294,1.0303,1.0317,1.0323,1.0345,1.0358,1.035,1.0363,1.0377,1.0396,1.0417,1.0433,1.047,1.047,1.0489,1.0482,1.0516,1.0485,1.0487,1.0482,1.048,1.0482,1.0521,1.0522,1.0523,1.0524,0,1.0348,1.0346,1.0365,1.0383,1.0398,1.0412,1.0425,1.0437,1.0429,1.0446,1.0468,1.0481,1.0506,1.0527,1.0544,1.0548,1.0535,1.0534,1.0541,1.0544,1.0544,1.0543,1.0444,1.0531,1.0531,1.053,1.053,1.0529,1.0406,1.0427,1.0436,1.0458,1.0466,1.0478,1.0497,1.0499,1.0517,1.0537,1.0531,1.0557,1.0566,1.0588,1.0595,1.0614,1.0601,1.0613,1.0615,1.0618,1.0621,1.0541,1.0617,1.0617,1.0617,1.0617,1.0617,0,1.0483,1.0488,1.0508,1.0526,1.0543,1.0529,1.0542,1.0556,1.0579,1.0589,1.0606,1.0631,1.0651,1.0653,1.0672,1.0687,1.0681,1.0692,1.069,1.0692,1.0631,1.0623,1.0697,1.0697,1.0697,1.0696,1.0696,1.0696,1.0525,1.0559,1.0558,1.0595,1.06,1.0625,1.0634,1.0644,1.0652,1.0681,1.0698,1.0699,1.0706,1.0725,1.0742,1.0742,1.075,1.0763,1.076,1.0704,1.0696,1.0688,1.068,1.0765,1.0765,1.0819,1.0819,1.0819]},{"header":{"parameterUnit":"m.s-1","parameterCategory":1,"la1":30.2991,"la2":30.254,"lo1":-89.0895,"lo2":-89.0444,"dy":0.0017,"dx":0.0017,"nx":28,"ny":28,"refTime":"2025-05-17T03:00:00:Z","depth":0,"parameterNumber":3,"parameterNumberName":"V-component_of_WINDS"},"data":[0,0,0,0,0,0,0,0,0,0,0,0,0,0,0,0,0,0,0,0,0,0,0,0,0,0,0,0,0,0,0,0,0,0,0,0,0,0,0,0,0,0,0,0,0,0,0,0,0,0,0,0,0,0,0,0,0,0,4.1377,4.1377,0,4.1348,4.1347,4.1347,4.127,4.1268,4.1266,4.1265,4.1237,4.1238,4.1239,0,0,0,0,0,0,0,0,0,0,0,0,0,4.1369,4.1369,4.1377,4.1377,4.1376,4.1348,4.1347,4.1347,4.127,4.1268,4.1266,4.1264,4.1237,4.1238,4.1239,0,0,0,0,0,0,0,0,0,0,0,0,0,4.1359,4.1369,4.1377,4.1334,4.133,4.1348,4.1347,4.1347,4.127,4.1268,4.1265,4.1263,4.1237,4.1238,4.1239,4.1297,0,0,4.1243,4.1243,0,0,0,0,0,0,0,0,4.136,4.136,4.1341,4.1337,4.1333,4.131,4.1334,4.133,4.1271,4.1293,4.1265,4.1262,4.1264,4.1262,4.1263,4.1295,4.1294,4.1243,4.1244,4.1244,4.1245,0,0,0,0,0,0,0,4.1361,4.136,4.1365,4.1341,4.1336,4.1317,4.1313,4.1333,4.1293,4.1291,4.1285,4.1283,4.1261,4.1262,4.1261,4.1294,4.1243,4.1244,4.1245,4.1245,4.1373,4.1375,0,0,0,0,0,0,4.1367,4.1362,4.1366,4.1365,4.134,4.132,4.1315,4.132,4.1292,4.1286,4.1285,4.1279,4.1261,4.126,4.126,4.1326,4.1244,4.1245,4.1246,4.137,4.1373,4.1376,0,0,0,0,0,0,4.1367,4.1368,4.1368,4.1361,4.136,4.1322,4.1328,4.132,4.1321,4.1288,4.128,4.1293,4.1259,4.1258,4.1288,4.1324,4.1246,4.1247,4.1367,4.1371,4.1375,4.1458,0,0,0,0,0,0,4.1367,4.1369,4.139,4.1363,4.1361,4.1396,4.133,4.1322,4.1323,4.1315,4.1293,4.1287,4.1257,4.1287,4.1289,4.1324,4.1248,4.1364,4.1369,4.1373,4.1451,4.1464,4.1474,0,0,0,0,0,4.1367,4.1415,4.1391,4.1392,4.1386,4.1398,4.1397,4.136,4.1326,4.1347,4.1326,4.1288,4.1319,4.129,4.1293,4.1328,4.1361,4.1367,4.1373,4.1446,4.1461,4.1474,0,0,0,0,0,0,4.1448,4.141,4.1384,4.1424,4.1414,4.1385,4.141,4.1377,4.1378,4.1371,4.1326,4.1322,4.1358,4.1346,4.1314,4.1383,4.1334,4.1341,4.1389,4.1403,4.1414,4.1417,4.1249,0,0,0,0,0,4.147,4.1482,4.1449,4.1487,4.1484,4.1448,4.1452,4.1424,4.1413,4.1409,4.139,4.1382,4.1389,4.1395,4.1401,4.1449,4.1444,4.1475,4.1487,4.1496,4.1503,4.1528,4.1541,4.1396,4.1396,4.1395,0,0,4.1517,4.1497,4.1508,4.1503,4.1493,4.1507,4.1445,4.1463,4.1473,4.1412,4.1439,4.1425,4.1412,4.1452,4.1468,4.1443,4.1542,4.1504,4.1512,4.1513,4.1535,4.1549,4.1562,4.14,4.1399,4.1398,0,0,4.1608,4.1595,4.1625,4.1616,4.1601,4.1577,4.1584,4.1559,4.1547,4.1573,4.1528,4.154,4.1554,4.1547,4.1545,4.1635,4.16,4.1638,4.1698,4.1723,4.1735,4.1745,4.1777,4.1789,4.1645,4.1645,4.1645,0,4.1668,4.1687,4.1646,4.1666,4.1666,4.161,4.1641,4.1634,4.1622,4.1624,4.1595,4.1612,4.16,4.1637,4.1659,4.1659,4.1667,4.164,4.1736,4.1746,4.1755,4.1785,4.1797,4.1649,4.1649,4.1648,4.1648,0,4.1761,4.1775,4.1802,4.179,4.1793,4.1819,4.1782,4.179,4.1762,4.1741,4.1769,4.1752,4.1753,4.176,4.1733,4.1794,4.1779,4.1744,4.1695,4.1774,4.1802,4.1813,4.1656,4.1655,4.1653,4.1652,0,0,4.1903,4.1868,4.1879,4.1873,4.1852,4.1863,4.1886,4.1886,4.1894,4.1888,4.1907,4.192,4.1888,4.1887,4.1859,4.1881,4.1953,4.1844,4.1843,4.1865,4.2019,4.2046,4.206,4.193,4.1932,4.1934,4.2021,0,4.199,4.2027,4.1991,4.2036,4.2048,4.1996,4.2016,4.2007,4.1988,4.1996,4.1976,4.1986,4.1943,4.1942,4.1961,4.1941,4.1984,4.1934,4.1948,4.1949,4.1953,4.2074,4.2102,4.2185,4.2031,4.2033,4.2034,0,4.2096,4.2093,4.214,4.2116,4.212,4.2139,4.2136,4.2145,4.2133,4.2117,4.2116,4.2082,4.2104,4.2056,4.2086,4.2053,4.2057,4.2048,4.205,4.205,4.1997,4.2078,4.221,4.2223,4.2051,4.205,4.2048,0,4.2195,4.2203,4.2232,4.2229,4.2202,4.2216,4.2206,4.2191,4.2194,4.2192,4.2193,4.2195,4.2196,4.2198,4.2165,4.2133,4.2201,4.2149,4.2189,4.219,4.2206,4.2206,4.2341,4.2208,4.2208,4.2208,4.2208,0,4.2296,4.2326,4.2276,4.2294,4.2327,4.2285,4.2319,4.2303,4.2291,4.2305,4.226,4.2275,4.2231,4.2241,4.2216,4.2246,4.2247,4.2236,4.2229,4.224,4.2241,4.2242,4.2236,4.2211,4.2211,4.221,4.2209,0,4.2412,4.238,4.2407,4.2379,4.2373,4.2399,4.2375,4.2391,4.2369,4.2388,4.239,4.2356,4.2366,4.2334,4.2339,4.2322,4.2365,4.2349,4.2369,4.2364,4.2407,4.2403,4.2547,4.2565,4.2421,4.2422,4.2423,0,4.2479,4.2501,4.2475,4.2481,4.2472,4.2483,4.2485,4.2445,4.2449,4.2437,4.2455,4.2461,4.2463,4.2482,4.2459,4.2462,4.2446,4.2496,4.2446,4.2457,4.2447,4.2446,4.2449,4.2507,4.2508,4.251,4.2511,0,4.26,4.2583,4.2587,4.2587,4.259,4.2588,4.2583,4.259,4.2548,4.2555,4.2564,4.2566,4.2571,4.2578,4.2577,4.2567,4.2533,4.2527,4.2536,4.2548,4.2559,4.2554,4.2398,4.2524,4.2523,4.2522,4.2521,4.252,4.2694,4.2711,4.2695,4.2702,4.2694,4.269,4.2703,4.2683,4.2689,4.2689,4.2666,4.268,4.2668,4.2662,4.2656,4.2667,4.2644,4.2658,4.2661,4.2666,4.2673,4.2557,4.2667,4.2666,4.2666,4.2666,4.2665,0,4.2814,4.2801,4.2807,4.2801,4.2806,4.2772,4.2765,4.2772,4.2784,4.2775,4.2779,4.279,4.2796,4.2773,4.2777,4.279,4.2775,4.2793,4.2791,4.279,4.2693,4.2685,4.2805,4.2805,4.2805,4.2805,4.2805,4.2805,4.2876,4.2904,4.2885,4.2908,4.2895,4.2908,4.2907,4.2903,4.2896,4.291,4.2914,4.2899,4.2885,4.2887,4.2892,4.2885,4.2889,4.2912,4.29,4.281,4.2797,4.2784,4.2775,4.2913,4.2913,4.2996,4.2997,4.2997]}]]